Location: Drocourt
(49.0571°N, 1.7669°E)
Time: 14:52:22
(UTC+00:00)

SR - Pass Details

Date: 17 April 2024
Orbit: 579 x 859 km, 66.7° (Epoch: 28 May)

Event Time Altitude Azimuth Distance (km) Brightness Sun altitude
Rises 09:17:28 0° 327° (NNW) 3,067 ? 40.0°
Reaches altitude 10° 09:20:16 10° 341° (NNW) 2,096 ? 40.4°
Maximum altitude 09:24:06 24° 36° (NE) 1,316 ? 40.9°
Drops below altitude 10° 09:27:44 10° 91° (E) 1,969 ? 41.3°
Sets 09:30:17 0° 106° (ESE) 2,838 ? 41.6°
